[[{"header":{"parameterUnit":"m.s-1","parameterCategory":2,"la1":30.2991,"la2":30.254,"lo1":-89.0895,"lo2":-89.0444,"dy":0.0017,"dx":0.0017,"nx":28,"ny":28,"refTime":"2023-09-21T03:00:00:Z","depth":"0","parameterNumber":2,"parameterNumberName":"U-component_of_CURRENTS"},"data":[0,0,0,0,0,0,0,0,0,0,0,0,0,0,0,0,0,0,0,0,0,0,0,0,0,0,0,0,0,0,0,0,0,0,0,0,0,0,0,0,0,0,0,0,0,0,0,0,0,0,0,0,0,0,0,0,0,0,0.2547,0.2547,0,0.2523,0.2522,0.2522,0.2492,0.2492,0.2492,0.2491,0.2456,0.2455,0.2455,0,0,0,0,0,0,0,0,0,0,0,0,0,0.2577,0.2576,0.2547,0.2547,0.2547,0.2523,0.2522,0.2521,0.2492,0.2492,0.2492,0.2491,0.2456,0.2456,0.2455,0,0,0,0,0,0,0,0,0,0,0,0,0,0.2557,0.2576,0.2547,0.2531,0.253,0.2523,0.2522,0.2521,0.2492,0.2492,0.2492,0.2491,0.2457,0.2456,0.2455,0.2455,0,0,0.2451,0.2451,0,0,0,0,0,0,0,0,0.2558,0.2555,0.2534,0.2532,0.2531,0.2512,0.252,0.2499,0.2492,0.2504,0.2491,0.2491,0.2476,0.2473,0.2466,0.2453,0.2452,0.2451,0.245,0.245,0.245,0,0,0,0,0,0,0,0.2559,0.2556,0.2535,0.2534,0.2532,0.2528,0.2525,0.2515,0.249,0.2503,0.2501,0.2503,0.2474,0.2467,0.2465,0.2451,0.2451,0.245,0.245,0.2449,0.2467,0.2468,0,0,0,0,0,0,0.2567,0.2558,0.2536,0.2535,0.2547,0.2528,0.2524,0.2517,0.249,0.2487,0.2503,0.2501,0.2469,0.2466,0.2464,0.2493,0.245,0.2449,0.2448,0.2466,0.2467,0.2469,0,0,0,0,0,0,0.2568,0.2565,0.2537,0.2548,0.2544,0.2528,0.252,0.2516,0.2515,0.2491,0.2486,0.2507,0.2469,0.2465,0.2464,0.249,0.2448,0.2447,0.2465,0.2466,0.2468,0.2532,0,0,0,0,0,0,0.2568,0.2565,0.2565,0.2548,0.2544,0.2543,0.252,0.2516,0.2517,0.2515,0.2493,0.2489,0.2468,0.2466,0.2463,0.2488,0.2447,0.2463,0.2466,0.2468,0.2528,0.2536,0.2542,0,0,0,0,0,0.2569,0.2569,0.2565,0.2563,0.2543,0.2544,0.2542,0.2527,0.2518,0.2524,0.2508,0.249,0.2478,0.2466,0.2462,0.2487,0.2462,0.2465,0.2467,0.2525,0.2534,0.2542,0,0,0,0,0,0,0.2579,0.2566,0.2561,0.2555,0.2556,0.254,0.2543,0.2536,0.2527,0.2524,0.2499,0.2494,0.2507,0.2488,0.2475,0.25,0.247,0.2471,0.2515,0.2523,0.253,0.2543,0.2446,0,0,0,0,0,0.2583,0.2578,0.2572,0.2569,0.2572,0.2561,0.256,0.2552,0.2543,0.2538,0.2523,0.2512,0.2514,0.251,0.2504,0.2513,0.2521,0.2528,0.2535,0.2541,0.255,0.2588,0.26,0.2477,0.2477,0.2477,0,0,0.2584,0.2579,0.2574,0.2572,0.2569,0.2576,0.2559,0.2563,0.2569,0.2536,0.254,0.2535,0.2522,0.2535,0.2539,0.2521,0.2583,0.2544,0.2549,0.2555,0.2592,0.2604,0.2615,0.2479,0.2478,0.2478,0,0,0.2587,0.2584,0.2583,0.259,0.2594,0.2592,0.2599,0.2591,0.259,0.2594,0.2581,0.2593,0.2579,0.2584,0.2583,0.2624,0.262,0.2623,0.2664,0.2701,0.2712,0.2721,0.2759,0.2771,0.2623,0.2623,0.2623,0,0.259,0.2585,0.2585,0.2594,0.2602,0.2603,0.2613,0.2616,0.2609,0.2617,0.2602,0.2616,0.2605,0.2637,0.2653,0.2641,0.2661,0.2634,0.2711,0.2721,0.2729,0.2765,0.2778,0.2627,0.2626,0.2626,0.2625,0,0.2593,0.2596,0.2602,0.2611,0.2624,0.2634,0.2645,0.2659,0.266,0.266,0.269,0.2683,0.2694,0.2699,0.2686,0.2746,0.2742,0.2719,0.2693,0.2746,0.278,0.2792,0.2631,0.263,0.2629,0.2628,0,0,0.2577,0.2597,0.2599,0.2604,0.2634,0.2637,0.2673,0.2697,0.2721,0.2725,0.2757,0.2772,0.2777,0.2778,0.2776,0.2808,0.2889,0.2794,0.2795,0.2836,0.2983,0.2915,0.2922,0.2883,0.2885,0.2887,0.2987,0,0.2578,0.2587,0.2607,0.2624,0.2629,0.2661,0.2691,0.2718,0.2747,0.278,0.2796,0.2824,0.2805,0.2823,0.2855,0.2882,0.2922,0.2865,0.2922,0.2924,0.286,0.2934,0.2788,0.2858,0.2999,0.3001,0.3002,0,0.2568,0.2577,0.2589,0.262,0.2628,0.2648,0.2705,0.2735,0.2798,0.2823,0.2869,0.2885,0.2944,0.2913,0.2997,0.2963,0.2985,0.2999,0.3003,0.2925,0.2878,0.2825,0.2875,0.2813,0.302,0.3019,0.3018,0,0.2533,0.2561,0.2568,0.2579,0.262,0.2644,0.2676,0.2743,0.2776,0.2865,0.2895,0.2965,0.2995,0.3045,0.3076,0.305,0.3161,0.3124,0.3085,0.3081,0.2959,0.2939,0.2954,0.319,0.3189,0.3189,0.3189,0,0.2512,0.2516,0.255,0.2551,0.257,0.2617,0.2661,0.2713,0.2794,0.2836,0.2911,0.2957,0.303,0.309,0.3117,0.3144,0.3197,0.3115,0.3109,0.2977,0.2958,0.2897,0.287,0.3193,0.3192,0.3191,0.3191,0,0.2462,0.2486,0.249,0.2533,0.2548,0.2561,0.2635,0.2668,0.2759,0.2825,0.2856,0.2968,0.3057,0.3119,0.321,0.3182,0.3131,0.3218,0.306,0.3032,0.2903,0.2884,0.2788,0.2699,0.3194,0.3193,0.3192,0,0.243,0.243,0.2461,0.2467,0.2486,0.252,0.2545,0.2637,0.268,0.282,0.284,0.2963,0.3019,0.313,0.3139,0.3188,0.3104,0.306,0.2974,0.2897,0.2872,0.2761,0.2685,0.285,0.2847,0.2844,0.2842,0,0.2376,0.2391,0.2397,0.2407,0.2425,0.2444,0.2491,0.2517,0.263,0.2685,0.2779,0.2847,0.2963,0.2952,0.3013,0.3016,0.2894,0.2999,0.2962,0.2645,0.2483,0.2393,0.2796,0.2816,0.2818,0.282,0.2822,0.2823,0.2333,0.2321,0.2331,0.2332,0.2348,0.235,0.2332,0.2392,0.2431,0.2481,0.2635,0.2673,0.2753,0.2816,0.2809,0.2714,0.2721,0.2621,0.2622,0.2531,0.2377,0.2724,0.2702,0.2703,0.2705,0.2706,0.2708,0,0.2255,0.2253,0.2256,0.2236,0.2207,0.2252,0.2269,0.2234,0.222,0.2323,0.2374,0.2432,0.2431,0.2495,0.2473,0.2363,0.2236,0.2298,0.2119,0.2078,0.2432,0.2348,0.2193,0.2193,0.2193,0.2193,0.2193,0.2193,0.2214,0.2176,0.2169,0.2088,0.2077,0.2001,0.1982,0.1961,0.1999,0.1996,0.2021,0.21,0.2254,0.2282,0.2202,0.2136,0.1967,0.1847,0.1879,0.2151,0.218,0.2209,0.2124,0.1925,0.1925,0.1402,0.1399,0.1396]},{"header":{"parameterUnit":"m.s-1","parameterCategory":2,"la1":30.2991,"la2":30.254,"lo1":-89.0895,"lo2":-89.0444,"dy":0.0017,"dx":0.0017,"nx":28,"ny":28,"refTime":"2023-09-21T03:00:00:Z","depth":"0","parameterNumber":3,"parameterNumberName":"V-component_of_CURRENTS"},"data":[0,0,0,0,0,0,0,0,0,0,0,0,0,0,0,0,0,0,0,0,0,0,0,0,0,0,0,0,0,0,0,0,0,0,0,0,0,0,0,0,0,0,0,0,0,0,0,0,0,0,0,0,0,0,0,0,0,0,0.0039,0.0039,0,0.0002,0.0002,0.0001,-0.0023,-0.0022,-0.0022,-0.0022,-0.009,-0.0091,-0.0093,0,0,0,0,0,0,0,0,0,0,0,0,0,0.0039,0.0039,0.0039,0.0039,0.0039,0.0002,0.0002,0.0001,-0.0023,-0.0022,-0.0022,-0.0022,-0.0089,-0.0091,-0.0093,0,0,0,0,0,0,0,0,0,0,0,0,0,0.0023,0.004,0.0039,0.0024,0.0022,0.0002,0.0002,0.0001,-0.0023,-0.0022,-0.0022,-0.0022,-0.0088,-0.0091,-0.0094,-0.0111,0,0,-0.0102,-0.0103,0,0,0,0,0,0,0,0,0.0024,0.0023,0.0026,0.0025,0.0023,-0.0004,-0.0023,-0.0038,-0.0023,-0.0007,-0.0022,-0.0022,-0.0063,-0.0067,-0.0077,-0.0115,-0.0117,-0.0102,-0.0104,-0.0105,-0.0106,0,0,0,0,0,0,0,0.0025,0.0024,0.0023,0.0026,0.0024,0.0002,-0.0,-0.0026,-0.0037,-0.0009,-0.001,-0.0011,-0.0064,-0.0074,-0.0079,-0.0118,-0.0102,-0.0105,-0.0106,-0.0107,-0.0172,-0.0172,0,0,0,0,0,0,0.0036,0.0025,0.0024,0.0022,0.0026,0.0002,-0.0,0.0003,-0.0036,-0.0041,-0.0011,-0.0012,-0.0069,-0.0075,-0.0081,-0.0096,-0.0105,-0.0108,-0.0109,-0.0172,-0.0172,-0.0172,0,0,0,0,0,0,0.0036,0.0036,0.0025,0.0024,0.0021,0.0003,0.0006,0.0003,-0.0004,-0.0037,-0.0043,-0.0013,-0.007,-0.0077,-0.0097,-0.0099,-0.0109,-0.0111,-0.0172,-0.0172,-0.0172,-0.0133,0,0,0,0,0,0,0.0036,0.0037,0.0041,0.0025,0.0022,0.002,0.0006,0.0002,-0.0004,-0.0005,-0.0041,-0.0047,-0.007,-0.0092,-0.0099,-0.0103,-0.0113,-0.0172,-0.0172,-0.0172,-0.0134,-0.0131,-0.0129,0,0,0,0,0,0.0037,0.0046,0.0041,0.0041,0.0029,0.002,0.0017,0.0002,-0.0004,-0.0004,-0.0026,-0.0046,-0.0099,-0.0094,-0.0103,-0.0108,-0.0172,-0.0172,-0.0172,-0.0135,-0.0132,-0.0129,0,0,0,0,0,0,0.0046,0.0044,0.0039,0.0046,0.0037,0.0017,0.0016,0.0006,-0.0012,-0.0013,-0.0045,-0.0053,-0.0071,-0.0095,-0.0089,-0.0127,-0.014,-0.0141,-0.0108,-0.0106,-0.0104,-0.0079,-0.0116,0,0,0,0,0,0.0051,0.0059,0.0049,0.0054,0.0052,0.0034,0.0028,0.002,0.0003,-0.0004,-0.0028,-0.0056,-0.008,-0.0095,-0.0119,-0.014,-0.0153,-0.015,-0.0147,-0.0145,-0.0131,-0.0158,-0.0157,-0.0173,-0.0173,-0.0173,0,0,0.0054,0.0056,0.0059,0.0057,0.0047,0.005,0.003,0.0027,0.0028,-0.001,-0.0018,-0.0047,-0.0083,-0.0103,-0.0114,-0.0123,-0.0147,-0.0145,-0.0143,-0.013,-0.0158,-0.0157,-0.0155,-0.0173,-0.0173,-0.0173,0,0,0.0071,0.0069,0.0082,0.0077,0.0071,0.0062,0.0065,0.0048,0.004,0.0027,0.0001,-0.0025,-0.0063,-0.0089,-0.0107,-0.0108,-0.0131,-0.012,-0.0093,-0.0119,-0.0118,-0.0117,-0.0124,-0.0124,-0.0122,-0.0122,-0.0122,0,0.0075,0.0093,0.0082,0.0091,0.0094,0.0073,0.0085,0.0071,0.005,0.0047,0.0031,-0.0019,-0.0055,-0.0078,-0.008,-0.0102,-0.0112,-0.0099,-0.0115,-0.0114,-0.0114,-0.0122,-0.0122,-0.012,-0.012,-0.0121,-0.0121,0,0.01,0.0112,0.0118,0.0128,0.0126,0.0133,0.0118,0.0115,0.0102,0.0086,0.0065,0.0017,-0.001,-0.0035,-0.0058,-0.0075,-0.008,-0.0106,-0.0118,-0.011,-0.0119,-0.012,-0.0118,-0.0118,-0.0119,-0.0119,0,0,0.0125,0.0136,0.014,0.0154,0.0149,0.0156,0.0157,0.0156,0.0169,0.0128,0.0135,0.0075,0.0052,0.003,-0.001,-0.004,-0.0053,-0.0066,-0.0069,-0.0065,-0.0094,-0.0086,-0.0086,-0.0081,-0.0081,-0.0081,-0.0098,0,0.0152,0.0185,0.018,0.021,0.0227,0.0211,0.0219,0.0212,0.02,0.0199,0.0142,0.0128,0.0075,0.0063,0.0026,-0.0026,-0.0055,-0.0045,-0.0109,-0.011,-0.0098,-0.0087,-0.0051,-0.0062,-0.01,-0.01,-0.01,0,0.0187,0.0206,0.0243,0.0265,0.0271,0.0285,0.0307,0.031,0.0295,0.0285,0.0256,0.0213,0.0169,0.0119,0.0037,0.0049,-0.0014,-0.0063,-0.0066,-0.007,-0.0104,-0.0079,-0.0063,-0.0165,-0.0102,-0.0102,-0.0102,0,0.023,0.0255,0.0293,0.0299,0.0315,0.0332,0.0342,0.0341,0.0361,0.0343,0.0355,0.0288,0.0272,0.0179,0.0081,0.0058,-0.0001,-0.0052,-0.0104,-0.0104,-0.009,-0.0088,-0.0172,-0.0113,-0.0113,-0.0113,-0.0113,0,0.0272,0.0302,0.032,0.0341,0.0391,0.0382,0.0434,0.0433,0.0445,0.049,0.0406,0.0429,0.0287,0.0233,0.012,0.0026,0.0027,-0.0085,-0.0107,-0.0075,-0.0071,-0.0174,-0.0248,-0.0114,-0.0114,-0.0113,-0.0113,0,0.0317,0.0327,0.0373,0.04,0.0417,0.0454,0.0502,0.054,0.0539,0.0597,0.0595,0.0546,0.0483,0.0343,0.0211,0.0097,-0.0072,-0.0053,0.0007,-0.0007,-0.0168,-0.024,-0.0342,-0.0405,-0.012,-0.012,-0.012,0,0.0345,0.0374,0.0425,0.0462,0.048,0.0533,0.0576,0.0591,0.0641,0.0683,0.0721,0.0674,0.0671,0.0481,0.0277,0.0093,-0.0042,-0.0016,-0.0069,-0.0158,-0.0255,-0.0309,-0.036,-0.0034,-0.0033,-0.0032,-0.0032,0,0.0399,0.0417,0.0454,0.0528,0.0583,0.0645,0.071,0.0765,0.0804,0.0859,0.0932,0.0932,0.0767,0.0601,0.0339,0.0204,-0.0086,-0.0009,-0.0124,-0.0206,-0.0248,-0.0324,-0.0033,-0.0026,-0.0027,-0.0027,-0.0027,-0.0028,0.0444,0.0479,0.053,0.0599,0.0664,0.0749,0.0808,0.0893,0.0991,0.1078,0.1088,0.1116,0.0873,0.0528,0.0331,-0.0009,-0.0054,-0.0131,-0.0211,-0.0258,-0.0319,-0.0003,-0.0012,-0.0012,-0.0012,-0.0013,-0.0013,0,0.0495,0.0532,0.0598,0.0677,0.0748,0.0775,0.0891,0.0958,0.1087,0.1184,0.1247,0.117,0.0868,0.0541,0.0083,-0.0167,-0.0275,-0.0309,-0.0385,-0.0432,-0.0158,-0.0154,-0.0167,-0.0167,-0.0166,-0.0166,-0.0166,-0.0166,0.0526,0.0589,0.0614,0.0731,0.0788,0.0881,0.0947,0.1063,0.1155,0.1267,0.1303,0.131,0.1102,0.0297,-0.0249,-0.038,-0.0573,-0.0597,-0.0729,-0.0544,-0.0534,-0.0524,-0.0536,-0.0629,-0.063,-0.0951,-0.0955,-0.0957]}],[{"header":{"parameterUnit":"m.s-1","parameterCategory":2,"la1":30.2991,"la2":30.254,"lo1":-89.0895,"lo2":-89.0444,"dy":0.0017,"dx":0.0017,"nx":28,"ny":28,"refTime":"2023-09-21T03:00:00:Z","depth":"2","parameterNumber":2,"parameterNumberName":"U-component_of_CURRENTS"},"data":[0,0,0,0,0,0,0,0,0,0,0,0,0,0,0,0,0,0,0,0,0,0,0,0,0,0,0,0,0,0,0,0,0,0,0,0,0,0,0,0,0,0,0,0,0,0,0,0,0,0,0,0,0,0,0,0,0,0,0.227,0.227,0,0.2272,0.2272,0.2272,0.2268,0.2268,0.2268,0.2268,0.2259,0.2259,0.2259,0,0,0,0,0,0,0,0,0,0,0,0,0,0.2257,0.2258,0.227,0.227,0.227,0.2272,0.2272,0.2272,0.2268,0.2268,0.2268,0.2268,0.2259,0.2259,0.2259,0,0,0,0,0,0,0,0,0,0,0,0,0,0.2261,0.2258,0.227,0.2269,0.2269,0.2272,0.2272,0.2272,0.2268,0.2268,0.2268,0.2268,0.2259,0.2259,0.2259,0.2258,0,0,0.2258,0.2258,0,0,0,0,0,0,0,0,0.226,0.2261,0.2269,0.2269,0.2269,0.2271,0.2265,0.2267,0.2268,0.2268,0.2268,0.2268,0.2263,0.2262,0.2261,0.2258,0.2257,0.2258,0.2258,0.2257,0.2257,0,0,0,0,0,0,0,0.226,0.2261,0.227,0.2269,0.227,0.2268,0.2268,0.2265,0.2264,0.2268,0.2268,0.227,0.2263,0.2262,0.2261,0.2257,0.2258,0.2257,0.2257,0.2257,0.2296,0.2297,0,0,0,0,0,0,0.2262,0.2261,0.227,0.227,0.2266,0.2268,0.2268,0.227,0.2265,0.2264,0.227,0.227,0.2262,0.2262,0.2261,0.23,0.2257,0.2257,0.2257,0.2295,0.2296,0.2298,0,0,0,0,0,0,0.2262,0.2263,0.227,0.2266,0.2267,0.2268,0.227,0.227,0.2281,0.2267,0.2266,0.2282,0.2262,0.2261,0.2271,0.2298,0.2257,0.2257,0.2293,0.2295,0.2297,0.2353,0,0,0,0,0,0,0.2262,0.2263,0.2271,0.2266,0.2267,0.2281,0.227,0.227,0.2282,0.2282,0.2277,0.2275,0.2262,0.2272,0.2271,0.2297,0.2256,0.2292,0.2294,0.2296,0.2349,0.2356,0.2362,0,0,0,0,0,0.2261,0.2269,0.2271,0.2273,0.2276,0.2282,0.2283,0.2282,0.2283,0.2291,0.2289,0.2276,0.2286,0.2273,0.2271,0.2298,0.2291,0.2294,0.2296,0.2346,0.2355,0.2362,0,0,0,0,0,0,0.2265,0.2269,0.2271,0.228,0.2286,0.2282,0.2292,0.2292,0.2297,0.2301,0.2286,0.2285,0.2307,0.2294,0.228,0.2317,0.2289,0.2291,0.2327,0.2335,0.2341,0.2351,0.2256,0,0,0,0,0,0.2271,0.2279,0.2282,0.2291,0.2297,0.2298,0.2303,0.2304,0.2306,0.2309,0.2306,0.2307,0.2316,0.2318,0.232,0.2336,0.234,0.2354,0.236,0.2366,0.2374,0.2407,0.2417,0.2307,0.2307,0.2307,0,0,0.2274,0.2279,0.2283,0.2293,0.2299,0.2309,0.2301,0.2315,0.2327,0.2307,0.2326,0.2329,0.2326,0.2347,0.2355,0.2339,0.2401,0.2369,0.2374,0.2379,0.2411,0.2422,0.2432,0.2309,0.2308,0.2308,0,0,0.2281,0.2291,0.2301,0.231,0.2325,0.2326,0.2335,0.2341,0.2351,0.2366,0.2363,0.2385,0.2386,0.2396,0.2399,0.2442,0.2435,0.2445,0.2483,0.2515,0.2525,0.2533,0.2556,0.2565,0.2446,0.2446,0.2446,0,0.2286,0.2296,0.2305,0.2319,0.2329,0.2337,0.235,0.2361,0.2371,0.2388,0.2379,0.2413,0.2411,0.2447,0.2466,0.2458,0.2471,0.2453,0.2524,0.2532,0.254,0.2561,0.2571,0.2449,0.2449,0.2448,0.2448,0,0.2297,0.2311,0.232,0.2338,0.2353,0.2367,0.2383,0.2403,0.2416,0.2429,0.247,0.2474,0.2496,0.2504,0.2498,0.2556,0.2547,0.253,0.2505,0.2555,0.2573,0.2583,0.2453,0.2452,0.2451,0.245,0,0,0.2287,0.232,0.2323,0.2334,0.2366,0.2372,0.2409,0.2439,0.2467,0.2488,0.2528,0.2557,0.2571,0.2577,0.258,0.261,0.2679,0.2599,0.26,0.2622,0.2751,0.2695,0.2699,0.2677,0.2679,0.268,0.2744,0,0.2292,0.2313,0.2335,0.2357,0.2369,0.2398,0.243,0.2464,0.2495,0.2536,0.2567,0.2607,0.2595,0.262,0.2649,0.2675,0.2707,0.2663,0.2699,0.27,0.2644,0.2709,0.2477,0.2509,0.2753,0.2754,0.2756,0,0.2289,0.2305,0.2329,0.2366,0.2376,0.2398,0.2451,0.2483,0.2551,0.2584,0.2635,0.2658,0.2721,0.2698,0.2768,0.2743,0.2758,0.2769,0.2771,0.2705,0.2662,0.2498,0.2517,0.2771,0.277,0.2769,0.2768,0,0.2259,0.2297,0.2315,0.2327,0.2375,0.2401,0.2435,0.2501,0.2536,0.2628,0.2661,0.2731,0.2772,0.2807,0.283,0.2814,0.2895,0.2869,0.2829,0.2825,0.2626,0.2601,0.292,0.292,0.292,0.292,0.292,0,0.2243,0.2255,0.2304,0.231,0.2342,0.239,0.2437,0.2489,0.2568,0.2612,0.2686,0.2728,0.2804,0.2847,0.2861,0.2877,0.2921,0.2854,0.2845,0.2639,0.2615,0.2836,0.2826,0.2922,0.2922,0.2921,0.2921,0,0.2201,0.2232,0.2252,0.2307,0.2327,0.2352,0.2427,0.2459,0.2548,0.2609,0.2645,0.2751,0.2824,0.2869,0.2939,0.2911,0.2934,0.2922,0.2675,0.2636,0.2836,0.2827,0.29,0.2899,0.2897,0.2897,0.2896,0,0.2178,0.2187,0.2239,0.2251,0.2277,0.2324,0.2354,0.2445,0.2479,0.2605,0.2624,0.2736,0.2778,0.2861,0.2857,0.2878,0.2928,0.2662,0.2589,0.2854,0.2838,0.2831,0.2825,0.2348,0.2343,0.2339,0.2335,0,0.2136,0.2161,0.2179,0.2205,0.2232,0.2258,0.2309,0.2332,0.2435,0.2476,0.2546,0.26,0.2699,0.2628,0.267,0.2646,0.2643,0.2577,0.2921,0.2393,0.2339,0.2322,0.2332,0.2297,0.2301,0.2304,0.2306,0.2307,0.2107,0.2107,0.2131,0.2146,0.217,0.2176,0.2164,0.2211,0.2238,0.2273,0.2397,0.2394,0.244,0.2399,0.2333,0.2292,0.248,0.2353,0.2363,0.2378,0.2307,0.2255,0.2183,0.2186,0.2189,0.2191,0.2193,0,0.205,0.2056,0.2068,0.2064,0.2043,0.2095,0.2109,0.2069,0.2041,0.2109,0.2137,0.199,0.1948,0.2,0.1882,0.1892,0.1848,0.1809,0.172,0.176,0.1796,0.1691,0.1406,0.1403,0.1401,0.1399,0,0,0.202,0.1996,0.1992,0.1929,0.1932,0.1873,0.186,0.1819,0.1825,0.1771,0.1746,0.1876,0.1949,0.1652,0.1617,0.149,0.1611,0.1431,0.2067,0.2004,0.2036,0.2119,0.2006,0,0,0,0,0]},{"header":{"parameterUnit":"m.s-1","parameterCategory":2,"la1":30.2991,"la2":30.254,"lo1":-89.0895,"lo2":-89.0444,"dy":0.0017,"dx":0.0017,"nx":28,"ny":28,"refTime":"2023-09-21T03:00:00:Z","depth":"2","parameterNumber":3,"parameterNumberName":"V-component_of_CURRENTS"},"data":[0,0,0,0,0,0,0,0,0,0,0,0,0,0,0,0,0,0,0,0,0,0,0,0,0,0,0,0,0,0,0,0,0,0,0,0,0,0,0,0,0,0,0,0,0,0,0,0,0,0,0,0,0,0,0,0,0,0,0.0134,0.0134,0,0.0098,0.0098,0.0097,0.0075,0.0075,0.0075,0.0075,0.0025,0.0024,0.0022,0,0,0,0,0,0,0,0,0,0,0,0,0,0.0142,0.0142,0.0134,0.0134,0.0133,0.0098,0.0098,0.0097,0.0075,0.0075,0.0075,0.0075,0.0025,0.0024,0.0022,0,0,0,0,0,0,0,0,0,0,0,0,0,0.0125,0.0142,0.0134,0.0119,0.0117,0.0099,0.0098,0.0097,0.0075,0.0075,0.0075,0.0075,0.0026,0.0024,0.0022,0.0012,0,0,0.0016,0.0015,0,0,0,0,0,0,0,0,0.0126,0.0125,0.0121,0.012,0.0118,0.0092,0.0082,0.0068,0.0075,0.0091,0.0075,0.0075,0.0047,0.0043,0.0036,0.0009,0.0007,0.0016,0.0015,0.0014,0.0014,0,0,0,0,0,0,0,0.0128,0.0126,0.0119,0.0121,0.0119,0.0099,0.0097,0.0079,0.0069,0.0089,0.0088,0.0085,0.0045,0.0038,0.0034,0.0007,0.0016,0.0014,0.0013,0.0012,-0.003,-0.003,0,0,0,0,0,0,0.0136,0.0128,0.012,0.0118,0.0123,0.01,0.0097,0.01,0.0069,0.0065,0.0085,0.0084,0.0041,0.0036,0.0032,0.0028,0.0014,0.0012,0.0011,-0.003,-0.003,-0.003,0,0,0,0,0,0,0.0136,0.0136,0.0122,0.0122,0.0119,0.01,0.0103,0.0099,0.0093,0.0066,0.0061,0.0083,0.0041,0.0035,0.0023,0.0026,0.0011,0.001,-0.003,-0.003,-0.003,0.0014,0,0,0,0,0,0,0.0137,0.0136,0.0139,0.0123,0.012,0.0117,0.0103,0.0098,0.0092,0.009,0.0063,0.0058,0.004,0.0026,0.0021,0.0023,0.0008,-0.003,-0.003,-0.003,0.0013,0.0016,0.0018,0,0,0,0,0,0.0137,0.0147,0.014,0.0139,0.0125,0.0118,0.0114,0.0099,0.0092,0.0092,0.0075,0.0059,0.0022,0.0024,0.0018,0.002,-0.003,-0.003,-0.003,0.0011,0.0015,0.0018,0,0,0,0,0,0,0.0152,0.0145,0.0137,0.0144,0.0133,0.0114,0.0113,0.0102,0.0089,0.0087,0.0061,0.0055,0.0044,0.0026,0.0029,0.0007,-0.0008,-0.0009,0.0026,0.0029,0.0032,0.0048,0.0007,0,0,0,0,0,0.0157,0.0163,0.0149,0.0154,0.015,0.0131,0.0126,0.0116,0.0102,0.0096,0.0076,0.0055,0.0039,0.003,0.0011,0.0002,-0.0016,-0.0003,0.0,0.0003,0.0012,-0.0014,-0.0012,-0.003,-0.003,-0.003,0,0,0.0163,0.0161,0.0163,0.0157,0.0147,0.015,0.0128,0.0124,0.0128,0.0092,0.009,0.0065,0.0038,0.0028,0.0021,0.0014,-0.0002,0.0003,0.0006,0.0013,-0.0013,-0.0011,-0.001,-0.003,-0.003,-0.003,0,0,0.0182,0.0177,0.0187,0.0182,0.0172,0.0164,0.0165,0.0147,0.0142,0.0134,0.011,0.0089,0.0064,0.0046,0.0034,0.0041,0.0014,0.0031,0.006,0.0035,0.0037,0.0038,0.002,0.0019,0.0033,0.0033,0.0033,0,0.0189,0.0202,0.0188,0.0196,0.0199,0.0174,0.0186,0.0177,0.0157,0.0156,0.014,0.0101,0.0074,0.0065,0.0065,0.0048,0.0032,0.0051,0.004,0.0041,0.0041,0.0022,0.002,0.0035,0.0035,0.0035,0.0035,0,0.0214,0.0223,0.0229,0.0235,0.0235,0.0241,0.0229,0.0228,0.0215,0.0201,0.0186,0.0147,0.0125,0.0108,0.0089,0.0078,0.0066,0.0047,0.0035,0.0046,0.0024,0.0022,0.0038,0.0038,0.0037,0.0036,0,0,0.0241,0.0247,0.025,0.0262,0.0258,0.0265,0.0274,0.0275,0.0288,0.0253,0.0261,0.0217,0.0189,0.0174,0.0139,0.0115,0.0097,0.0086,0.0084,0.0075,0.0049,0.0039,0.0035,0.0077,0.0076,0.0076,0.0034,0,0.0266,0.0294,0.029,0.0319,0.0334,0.0323,0.0337,0.0333,0.0325,0.0324,0.0276,0.0265,0.0216,0.0206,0.0173,0.012,0.0093,0.0111,0.0034,0.0032,0.0027,0.0033,0.0062,0.0027,0.0031,0.0031,0.0031,0,0.0298,0.0313,0.0346,0.0371,0.0377,0.0392,0.0419,0.0427,0.0415,0.0407,0.038,0.0341,0.03,0.0255,0.0172,0.0187,0.0123,0.0076,0.0073,0.0049,0.0018,0.0015,0.0022,0.0026,0.0027,0.0027,0.0027,0,0.0334,0.0358,0.039,0.0397,0.0416,0.0435,0.0448,0.0452,0.0474,0.0459,0.0466,0.0406,0.0386,0.0298,0.0196,0.0184,0.0105,0.0073,0.0004,0.0003,0.0005,0.0005,0.0011,0.0011,0.0011,0.0011,0.0011,0,0.037,0.0395,0.0411,0.043,0.0477,0.0475,0.0525,0.0529,0.0543,0.0578,0.051,0.0522,0.0395,0.0332,0.0224,0.0116,0.0124,0.0015,-0.0008,0.0021,0.0022,0.0003,0.0003,0.001,0.001,0.001,0.0011,0,0.0403,0.0411,0.0451,0.048,0.0496,0.053,0.058,0.0616,0.0618,0.0663,0.0661,0.0613,0.0536,0.0403,0.027,0.0166,0.0053,0.0008,0.0054,0.0038,-0.0042,-0.004,-0.0073,-0.0074,-0.0074,-0.0075,-0.0075,0,0.0422,0.0446,0.0492,0.0524,0.054,0.059,0.0631,0.0654,0.07,0.0727,0.0756,0.0695,0.0669,0.0469,0.0283,0.01,0.0062,-0.0007,-0.0032,-0.0031,-0.005,-0.0047,-0.0044,-0.0013,-0.0013,-0.0012,-0.0012,0,0.0459,0.0475,0.0507,0.057,0.0621,0.0679,0.0741,0.0788,0.0826,0.0864,0.0905,0.0885,0.0711,0.0537,0.0283,0.0162,0.0023,-0.0011,-0.0018,0.0005,0.0022,0.0005,0.0006,-0.0011,-0.0011,-0.0011,-0.0011,-0.0012,0.049,0.0517,0.0561,0.0621,0.0681,0.0757,0.0809,0.0881,0.0958,0.1012,0.1011,0.0983,0.0792,0.0474,0.0259,0.0032,0.0042,-0.0051,-0.005,-0.0049,-0.0034,-0.0018,-0.0056,-0.0057,-0.0057,-0.0057,-0.0057,0,0.0523,0.0553,0.0609,0.0679,0.0742,0.0772,0.0874,0.0925,0.1017,0.1072,0.1102,0.0925,0.0739,0.0508,0.0177,-0.0022,-0.0031,-0.0089,-0.0062,-0.0061,-0.006,-0.0045,-0.0071,-0.0072,-0.0073,-0.0073,0,0,0.0542,0.0591,0.0613,0.0711,0.0765,0.0848,0.0904,0.0984,0.1043,0.1084,0.1077,0.1065,0.0805,0.0555,0.0296,0.0103,0.0063,0.007,0.0107,0.0172,0.0174,-0.0006,0.0023,0,0,0,0,0]}],[{"header":{"parameterUnit":"m.s-1","parameterCategory":2,"la1":30.2991,"la2":30.254,"lo1":-89.0895,"lo2":-89.0444,"dy":0.0017,"dx":0.0017,"nx":28,"ny":28,"refTime":"2023-09-21T03:00:00:Z","depth":"4","parameterNumber":2,"parameterNumberName":"U-component_of_CURRENTS"},"data":[0,0,0,0,0,0,0,0,0,0,0,0,0,0,0,0,0,0,0,0,0,0,0,0,0,0,0,0,0,0,0,0,0,0,0,0,0,0,0,0,0,0,0,0,0,0,0,0,0,0,0,0,0,0,0,0,0,0,0.1419,0.1419,0,0.1458,0.1458,0.1458,0.1498,0.1499,0.15,0.1501,0.154,0.154,0.154,0,0,0,0,0,0,0,0,0,0,0,0,0,0.1359,0.136,0.1418,0.1419,0.142,0.1458,0.1458,0.1459,0.1498,0.1499,0.15,0.1501,0.154,0.154,0.154,0,0,0,0,0,0,0,0,0,0,0,0,0,0.1388,0.136,0.1418,0.1446,0.1449,0.1458,0.1458,0.1459,0.1498,0.1499,0.15,0.1501,0.1539,0.154,0.1541,0.1522,0,0,0.1542,0.1542,0,0,0,0,0,0,0,0,0.1386,0.139,0.1441,0.1444,0.1447,0.1476,0.1452,0.1481,0.1498,0.1477,0.1501,0.1502,0.1519,0.1521,0.1523,0.1524,0.1526,0.1542,0.1543,0.1543,0.1543,0,0,0,0,0,0,0,0.1384,0.1388,0.1432,0.1442,0.1446,0.145,0.1455,0.1457,0.149,0.1479,0.1483,0.149,0.152,0.1523,0.1525,0.1526,0.1542,0.1543,0.1543,0.1543,0.1612,0.1613,0,0,0,0,0,0,0.1383,0.1387,0.1431,0.1433,0.1421,0.145,0.1456,0.1464,0.149,0.1496,0.1489,0.1492,0.1521,0.1524,0.1526,0.1592,0.1543,0.1543,0.1544,0.1611,0.1612,0.1614,0,0,0,0,0,0,0.1382,0.1387,0.1429,0.1412,0.1418,0.145,0.1459,0.1464,0.15,0.1498,0.1503,0.1523,0.1522,0.1525,0.156,0.1591,0.1544,0.1544,0.1609,0.1611,0.1613,0.1668,0,0,0,0,0,0,0.138,0.1386,0.1406,0.1412,0.1419,0.1455,0.1458,0.1464,0.1502,0.1506,0.1528,0.1531,0.1523,0.1559,0.1561,0.159,0.1545,0.1607,0.161,0.1612,0.1665,0.1672,0.1679,0,0,0,0,0,0.1378,0.1394,0.1406,0.1413,0.144,0.1456,0.1461,0.1485,0.1503,0.1521,0.1541,0.1532,0.1578,0.1561,0.1562,0.1593,0.1606,0.1609,0.1612,0.1661,0.1671,0.1678,0,0,0,0,0,0,0.1377,0.14,0.1413,0.1437,0.1457,0.1464,0.1488,0.1503,0.1533,0.1548,0.1547,0.1551,0.1593,0.1586,0.1567,0.1622,0.1592,0.1596,0.1629,0.1638,0.1644,0.1643,0.1545,0,0,0,0,0,0.1386,0.1409,0.1425,0.1448,0.1461,0.1482,0.1498,0.1514,0.1534,0.155,0.1565,0.1584,0.1601,0.1616,0.1626,0.1652,0.1652,0.1675,0.1682,0.1688,0.1689,0.1718,0.1728,0.1625,0.1625,0.1625,0,0,0.1392,0.141,0.1424,0.1451,0.1471,0.1489,0.1495,0.1528,0.1552,0.1548,0.1595,0.1609,0.1615,0.1648,0.1667,0.1651,0.172,0.1692,0.1697,0.1695,0.1723,0.1733,0.1741,0.1627,0.1627,0.1627,0,0,0.1406,0.1435,0.1455,0.1475,0.151,0.1519,0.1536,0.1563,0.1589,0.1626,0.1635,0.1669,0.1694,0.1704,0.1711,0.1762,0.1756,0.1774,0.1808,0.1837,0.1846,0.1853,0.1875,0.1883,0.1777,0.1777,0.1777,0,0.1417,0.1442,0.1464,0.1487,0.1508,0.1535,0.1559,0.1582,0.162,0.1643,0.1653,0.1709,0.1717,0.1755,0.1778,0.1778,0.1793,0.1775,0.1846,0.1853,0.186,0.188,0.1889,0.178,0.178,0.178,0.1779,0,0.1434,0.1467,0.1483,0.152,0.1544,0.1572,0.1601,0.1637,0.1673,0.1693,0.1753,0.177,0.1804,0.1816,0.1814,0.187,0.1866,0.1851,0.1822,0.1873,0.1892,0.19,0.1785,0.1784,0.1783,0.1782,0,0,0.1422,0.1483,0.1493,0.1517,0.1567,0.1582,0.1632,0.1674,0.1714,0.1758,0.1807,0.1848,0.187,0.1879,0.1889,0.1916,0.1981,0.1912,0.1912,0.193,0.2051,0.1925,0.1922,0.1985,0.1987,0.1988,0.2047,0,0.1432,0.1477,0.1507,0.1553,0.1575,0.162,0.1659,0.1705,0.1752,0.1805,0.1841,0.1892,0.189,0.1923,0.1951,0.1975,0.2005,0.1966,0.2002,0.2002,0.1881,0.1928,0.1993,0.2053,0.2055,0.2057,0.2058,0,0.1431,0.1464,0.1512,0.1571,0.1587,0.1623,0.1694,0.1734,0.1809,0.185,0.1909,0.1939,0.2,0.1987,0.2055,0.2036,0.2053,0.2063,0.2065,0.1931,0.1892,0.199,0.2073,0.2071,0.207,0.2069,0.2068,0,0.1395,0.1462,0.1503,0.1525,0.1595,0.1637,0.1682,0.1756,0.1797,0.1893,0.1932,0.2001,0.2047,0.2083,0.2112,0.2099,0.2173,0.215,0.2051,0.2043,0.2113,0.2105,0.2196,0.2196,0.2195,0.2195,0.2195,0,0.1375,0.1411,0.1498,0.1519,0.1571,0.163,0.1696,0.1753,0.1837,0.188,0.1961,0.2001,0.2077,0.2122,0.2138,0.2119,0.2198,0.2062,0.205,0.2137,0.213,0.212,0.211,0.2197,0.2197,0.2196,0.2196,0,0.1324,0.1384,0.1434,0.1525,0.1557,0.1599,0.1698,0.1736,0.1831,0.1893,0.1928,0.2025,0.2085,0.2136,0.2196,0.2137,0.214,0.2114,0.2214,0.2205,0.1985,0.1978,0.2003,0.1999,0.1995,0.1993,0.199,0,0.1299,0.1324,0.1429,0.1461,0.1511,0.1584,0.1625,0.1725,0.176,0.1888,0.1899,0.2002,0.2051,0.2029,0.2103,0.2119,0.2094,0.2076,0.2015,0.198,0.1967,0.1965,0.1962,0.1985,0.1984,0.1983,0.1982,0,0.125,0.1305,0.1348,0.1414,0.147,0.1513,0.1583,0.1595,0.17,0.1801,0.1823,0.1853,0.1912,0.1951,0.1977,0.1986,0.2073,0.204,0.2047,0.199,0.1959,0.1948,0.195,0.1971,0.1972,0.1974,0.1974,0,0.1221,0.1239,0.1304,0.1348,0.141,0.1421,0.1468,0.1499,0.1543,0.167,0.1681,0.1789,0.1891,0.1884,0.1914,0.1907,0.1876,0.1801,0.1819,0.1833,0.1749,0.1683,0.1603,0,0,0,0,0,0.118,0.1188,0.1227,0.1261,0.1315,0.135,0.1423,0.1469,0.1567,0.1536,0.1599,0.1645,0.1682,0.1747,0.1707,0.1855,0.1894,0.1802,0.1819,0.1907,0.192,0.1837,0,0,0,0,0,0,0.1152,0.119,0.1196,0.1175,0.1183,0.1223,0.1268,0.1338,0.132,0.1431,0.1461,0.1546,0.1612,0.1689,0.1677,0.1696,0.1671,0.1874,0.1869,0.1899,0.1911,0.1922,0.1841,0,0,0,0,0]},{"header":{"parameterUnit":"m.s-1","parameterCategory":2,"la1":30.2991,"la2":30.254,"lo1":-89.0895,"lo2":-89.0444,"dy":0.0017,"dx":0.0017,"nx":28,"ny":28,"refTime":"2023-09-21T03:00:00:Z","depth":"4","parameterNumber":3,"parameterNumberName":"V-component_of_CURRENTS"},"data":[0,0,0,0,0,0,0,0,0,0,0,0,0,0,0,0,0,0,0,0,0,0,0,0,0,0,0,0,0,0,0,0,0,0,0,0,0,0,0,0,0,0,0,0,0,0,0,0,0,0,0,0,0,0,0,0,0,0,0.0148,0.0148,0,0.0128,0.0128,0.0128,0.0119,0.0119,0.0119,0.0119,0.0094,0.0093,0.0093,0,0,0,0,0,0,0,0,0,0,0,0,0,0.015,0.015,0.0148,0.0148,0.0147,0.0128,0.0128,0.0128,0.0119,0.0119,0.0119,0.0119,0.0094,0.0093,0.0093,0,0,0,0,0,0,0,0,0,0,0,0,0,0.0142,0.015,0.0148,0.0141,0.014,0.0128,0.0128,0.0128,0.0119,0.0119,0.0119,0.0119,0.0095,0.0094,0.0093,0.0086,0,0,0.0089,0.0089,0,0,0,0,0,0,0,0,0.0142,0.0142,0.0142,0.0141,0.014,0.0126,0.012,0.0113,0.0119,0.0127,0.0119,0.0119,0.0104,0.0102,0.0099,0.0085,0.0083,0.0089,0.0089,0.0088,0.0088,0,0,0,0,0,0,0,0.0143,0.0142,0.014,0.0142,0.0141,0.0129,0.0128,0.0118,0.0116,0.0126,0.0125,0.0123,0.0104,0.01,0.0098,0.0083,0.0089,0.0088,0.0088,0.0087,0.0069,0.0069,0,0,0,0,0,0,0.0147,0.0143,0.0141,0.014,0.0141,0.0129,0.0128,0.0131,0.0116,0.0114,0.0123,0.0123,0.0101,0.0099,0.0097,0.0105,0.0088,0.0087,0.0087,0.0069,0.0069,0.0069,0,0,0,0,0,0,0.0147,0.0147,0.0142,0.014,0.0139,0.0129,0.0132,0.013,0.0129,0.0114,0.0111,0.0125,0.0101,0.0099,0.0095,0.0103,0.0087,0.0086,0.0069,0.0069,0.0069,0.0109,0,0,0,0,0,0,0.0147,0.0147,0.0152,0.0141,0.0139,0.0141,0.0132,0.013,0.0128,0.0127,0.0114,0.0112,0.0101,0.0097,0.0094,0.0101,0.0085,0.0068,0.0069,0.0069,0.0108,0.0111,0.0113,0,0,0,0,0,0.0147,0.0157,0.0152,0.0152,0.0145,0.0141,0.0139,0.0132,0.0128,0.0131,0.0122,0.0112,0.0096,0.0096,0.0093,0.01,0.0068,0.0069,0.0069,0.0106,0.011,0.0113,0,0,0,0,0,0,0.0161,0.0156,0.0151,0.0159,0.0152,0.014,0.0142,0.0135,0.013,0.0131,0.0115,0.0112,0.0111,0.0098,0.0099,0.0094,0.008,0.0079,0.0109,0.0113,0.0115,0.0127,0.0084,0,0,0,0,0,0.0166,0.0171,0.0161,0.0167,0.0166,0.0154,0.0151,0.0146,0.0139,0.0137,0.0126,0.0115,0.0108,0.0106,0.0095,0.0095,0.0076,0.0096,0.0098,0.0101,0.0108,0.0085,0.0087,0.007,0.007,0.007,0,0,0.0172,0.017,0.0173,0.017,0.0165,0.017,0.0153,0.0153,0.0159,0.0134,0.014,0.0124,0.0109,0.0109,0.0107,0.0102,0.0094,0.0101,0.0104,0.0109,0.0085,0.0087,0.0089,0.007,0.007,0.007,0,0,0.0189,0.0187,0.0196,0.0194,0.0188,0.0183,0.0185,0.0174,0.0173,0.0174,0.0158,0.0149,0.0137,0.0129,0.0124,0.0134,0.0108,0.0128,0.0155,0.0133,0.0134,0.0135,0.0109,0.0107,0.0132,0.0132,0.0132,0,0.0197,0.0208,0.0198,0.0206,0.021,0.0192,0.0205,0.0201,0.0191,0.0193,0.0182,0.0163,0.0148,0.015,0.0154,0.0142,0.0122,0.0146,0.0137,0.0138,0.0138,0.0111,0.0109,0.0134,0.0133,0.0133,0.0133,0,0.0218,0.0227,0.0234,0.0241,0.0243,0.0251,0.0245,0.0247,0.0242,0.0234,0.0231,0.0207,0.0197,0.0188,0.0176,0.0173,0.0155,0.0142,0.0131,0.0143,0.0113,0.011,0.0136,0.0136,0.0135,0.0135,0,0,0.0238,0.0248,0.025,0.0262,0.0264,0.0271,0.0284,0.0291,0.0304,0.0284,0.0294,0.0273,0.0254,0.0246,0.0223,0.0204,0.0186,0.0178,0.0176,0.0157,0.0132,0.0116,0.0111,0.0171,0.017,0.017,0.0109,0,0.0259,0.0283,0.0283,0.0312,0.0325,0.0321,0.0338,0.0341,0.0338,0.0341,0.0313,0.0311,0.0278,0.0273,0.025,0.0204,0.018,0.0203,0.0121,0.0118,0.0107,0.0108,0.017,0.0107,0.0106,0.0106,0.0105,0,0.0282,0.0295,0.0326,0.0352,0.0359,0.0377,0.0403,0.0415,0.0413,0.041,0.0396,0.0369,0.0343,0.0311,0.0238,0.0254,0.0199,0.0157,0.0154,0.0125,0.0097,0.0093,0.0099,0.01,0.01,0.01,0.0101,0,0.0302,0.0329,0.0357,0.0365,0.0389,0.0411,0.0427,0.0438,0.0457,0.0454,0.0459,0.0417,0.04,0.033,0.0243,0.024,0.0155,0.0139,0.007,0.0068,0.0083,0.0083,0.0084,0.0084,0.0084,0.0085,0.0085,0,0.0324,0.0347,0.0372,0.0388,0.0432,0.044,0.0486,0.0494,0.0511,0.0535,0.0497,0.0496,0.0404,0.0343,0.0258,0.0156,0.0164,0.0076,0.0054,0.01,0.0102,0.008,0.0081,0.0082,0.0083,0.0083,0.0084,0,0.0336,0.0351,0.0388,0.0425,0.0443,0.0475,0.0528,0.0556,0.0567,0.0596,0.0597,0.0556,0.0477,0.0374,0.0257,0.018,0.0081,0.004,0.0098,0.0079,0.0003,0.0006,-0.004,-0.0041,-0.0042,-0.0043,-0.0043,0,0.0342,0.0363,0.0416,0.0445,0.0465,0.0515,0.0552,0.0584,0.0614,0.063,0.0643,0.0584,0.0538,0.0366,0.0253,0.0087,0.0059,0.0002,0.0001,0.0009,-0.0009,-0.0005,-0.0,-0.0045,-0.0045,-0.0045,-0.0045,0,0.0354,0.0377,0.0406,0.0465,0.0512,0.0564,0.0618,0.0644,0.0678,0.069,0.0677,0.0592,0.0502,0.0368,0.0238,0.0118,0.0037,-0.0008,-0.0007,-0.0008,0.0002,-0.0013,-0.0008,-0.0048,-0.0048,-0.0048,-0.0047,0,0.0366,0.0387,0.043,0.0481,0.054,0.0593,0.0623,0.0659,0.069,0.0706,0.07,0.0608,0.0559,0.0384,0.0266,0.0145,0.011,0.0061,0.0058,0.006,0.0104,0.0132,0.0105,0,0,0,0,0,0.0373,0.0396,0.0442,0.0497,0.0555,0.059,0.0657,0.0683,0.0717,0.0711,0.0708,0.0624,0.0457,0.0392,0.0268,0.0236,0.008,0.0084,0.002,-0.0065,-0.0061,-0.0029,0,0,0,0,0,0,0.0377,0.0417,0.0436,0.05,0.0537,0.0603,0.0646,0.0672,0.0671,0.0688,0.0606,0.0577,0.0418,0.0524,0.0259,0.0225,0.0163,0.0014,0.001,-0.0067,-0.0064,-0.0061,-0.0026,0,0,0,0,0]}]]